Tracking 18987 objects as of 25-Feb-2018
HD Live streaming from Space Station
objects crossing your sky now

OBJECT J

Track OBJECT J now!
10-day predictions


NORAD ID: 43200
Int'l Code: 2018-015J
Perigee: 461.6 km
Apogee: 505.2 km
Inclination: 97.4 °
Period: 94.1 minutes
Semi major axis: 6854 km
RCS: Unknown
Launch date: February 2, 2018
Source: (TBD)
Launch site: Jiuquan Satellite Launch Center, China (JSC)
aabbcc
Your satellite tracking list
Your tracking list is empty




NASA's NSSDC Master Catalog

Two Line Element Set (TLE):
1 43200U 18015J   18055.93752168 +.00003895 +00000-0 +13551-3 0  9997
2 43200 097.4400 187.8407 0031743 267.5109 092.2494 15.29850480003441
Source of the keplerian elements: AFSPC